Tracking 30120 objects as of 6-Feb-2025
HD Live streaming from Space Station
objects crossing your sky now

PEGASUS DEB

Track PEGASUS DEB now!
10-day predictions


NORAD ID: 24378
Int'l Code: 1994-029QF
Perigee: 593.0 km
Apogee: 823.2 km
Inclination: 82.0 °
Period: 98.8 minutes
Semi major axis: 7079 km
RCS: 0.0424 m2 (small)
Launch date: May 19, 1994
Source: United States (US)
Launch site: AIR FORCE WESTERN TEST RANGE (AFWTR)

Note: This is SATELLITE DEBRIS
Your satellite tracking list
Your tracking list is empty




NASA's NSSDC Master Catalog

Two Line Element Set (TLE):
1 24378U 94029QF  25036.97309410  .00004114  00000-0  74983-3 0  9991
2 24378  82.0303   5.8905 0162576 315.9767  42.8577 14.57593963626339
Source of the keplerian elements: AFSPC